Ontario, CA

2:27 PM PDT on April 28, 2017 (GMT -0700)
Ontario International

Weather History for KONT - January, 2014

Change the Weather History Date:

Monday, January 27, 2014

  Actual Average Record
Temperature  
Mean Temperature 60 °F 54 °F  
Max Temperature 71 °F 65 °F 79 °F (2003)
Min Temperature 48 °F 44 °F 39 °F (2002)
Degree Days  
Heating Degree Days 5 11  
Month to date heating degree days 99 297  
Since 1 July heating degree days 521 857  
Cooling Degree Days 0 0  
Month to date cooling degree days 19 0  
Year to date cooling degree days 19 0  
Growing Degree Days 10 (Base 50)    
Moisture  
Dew Point 46 °F    
Average Humidity 56    
Maximum Humidity 77    
Minimum Humidity 35    
Precipitation  
Precipitation 0.00 in 0.04 in 1.07 in (2008)
Month to date precipitation 0.00 2.99  
Year to date precipitation 0.00 2.99  
Since 1 July precipitation 0.92  
Snow  
Snow 0.00 in - - ()
Month to date snowfall 0.0  
Year to date snowfall 0.0  
Snow Depth 0.00 in    
Sea Level Pressure  
Sea Level Pressure 30.04 in    
Wind  
Wind Speed 3 mph (West)    
Max Wind Speed 13 mph    
Max Gust Speed 16 mph    
Visibility 9 miles    
Events Rain    
T = Trace of Precipitation, MM = Missing Value Source: NWS Daily Summary

Daily Weather History Graph

Daily Weather History Graph

Search for Another Location

Airport or City:

Trip Planner

Search our weather history database for the weather conditions in past years. The results will help you decide how hot, cold, wet, or windy it might be!

Date:

Astronomy

Jan. 27, 2014 Rise Set
Actual Time 6:50 AM PST 5:16 PM PST
Civil Twilight 6:24 AM PST 5:42 PM PST
Nautical Twilight 5:54 AM PST 6:12 PM PST
Astronomical Twilight 5:24 AM PST 6:42 PM PST
Moon 3:34 AM PST (1/27) 2:08 PM PST (1/27)
Length of Visible Light 11h 18m
Length of Day
10h 25m
Waning Crescent, 14% of the Moon is Illuminated
Jan 27
Waning Crescent
Jan 30
New
Feb 6
First Quarter
Feb 14
Full
Feb 22
Last Quarter

Hourly Weather History & Observations

Time (PST) Temp. Dew Point Humidity Pressure Visibility Wind Dir Wind Speed Gust Speed Precip Events Conditions
12:53 AM 57.0 °F 45.0 °F 64% 30.05 in 10.0 mi Calm Calm - N/A   Overcast
1:53 AM 55.9 °F 44.1 °F 64% 30.05 in 10.0 mi Calm Calm - 0.00 in Rain Light Rain
2:53 AM 53.1 °F 45.0 °F 74% 30.02 in 10.0 mi East 3.5 mph - 0.00 in   Scattered Clouds
3:53 AM 52.0 °F 44.1 °F 74% 30.01 in 10.0 mi Calm Calm - N/A   Partly Cloudy
4:53 AM 52.0 °F 45.0 °F 77% 30.00 in 9.0 mi Calm Calm - N/A   Partly Cloudy
5:53 AM 51.1 °F 44.1 °F 77% 30.03 in 8.0 mi Calm Calm - N/A   Clear
6:53 AM 50.0 °F 43.0 °F 77% 30.06 in 7.0 mi Calm Calm - N/A   Partly Cloudy
7:53 AM 53.1 °F 44.1 °F 71% 30.08 in 7.0 mi Calm Calm - N/A   Partly Cloudy
8:53 AM 55.9 °F 46.0 °F 69% 30.10 in 6.0 mi South 3.5 mph - N/A   Haze
9:53 AM 59.0 °F 45.0 °F 60% 30.09 in 7.0 mi Calm Calm - N/A   Partly Cloudy
10:53 AM 62.1 °F 45.0 °F 53% 30.08 in 8.0 mi WNW 3.5 mph - N/A   Mostly Cloudy
11:53 AM 64.9 °F 45.0 °F 48% 30.06 in 10.0 mi WNW 6.9 mph - N/A   Mostly Cloudy
12:53 PM 68.0 °F 45.0 °F 43% 30.02 in 10.0 mi WSW 6.9 mph - N/A   Mostly Cloudy
1:53 PM 69.1 °F 44.1 °F 40% 29.99 in 10.0 mi WNW 5.8 mph - N/A   Mostly Cloudy
2:53 PM 71.1 °F 43.0 °F 36% 29.98 in 10.0 mi West 8.1 mph - N/A   Mostly Cloudy
3:53 PM 69.1 °F 42.1 °F 38% 29.99 in 10.0 mi West 10.4 mph - N/A   Mostly Cloudy
4:53 PM 66.9 °F 45.0 °F 45% 30.00 in 10.0 mi West 8.1 mph - N/A   Mostly Cloudy
5:53 PM 63.0 °F 51.1 °F 65% 30.02 in 10.0 mi WSW 8.1 mph - N/A   Mostly Cloudy
6:53 PM 60.1 °F 51.1 °F 72% 30.04 in 10.0 mi SW 3.5 mph - N/A   Mostly Cloudy
7:53 PM 57.9 °F 51.1 °F 78% 30.06 in 10.0 mi West 6.9 mph - N/A   Mostly Cloudy
8:53 PM 55.9 °F 51.1 °F 84% 30.06 in 10.0 mi Calm Calm - N/A   Mostly Cloudy
9:53 PM 55.9 °F 51.1 °F 84% 30.07 in 10.0 mi Calm Calm - N/A   Scattered Clouds
10:53 PM 54.0 °F 51.1 °F 90% 30.07 in 9.0 mi Calm Calm - N/A   Scattered Clouds
11:53 PM 53.1 °F 50.0 °F 89% 30.07 in 8.0 mi NE 3.5 mph - N/A   Scattered Clouds